Find Starlink 30589

NORAD ID: 58103 Int'l Des: 2023-161 Owner: SPXS Country: US Constellation: starlink operational
LEOCIRCULAR

Live Position

Loading 3D Globe...

About Starlink 30589

Description loading...

Upcoming Passes

Passes for default location (London). Set your location on the main map for personalized predictions.

Altitude History

Loading altitude history...

Two-Line Element Set

1 58103U 23161G 26106.93857343 .00001032 00000-0 46961-4 0 9993
2 58103 53.1615 347.9605 0001325 82.4397 277.6754 15.30194736140279
Epoch: Apr 16, 2026 • Age: 13 hours

Current Status

Altitude 475.6 km
Velocity 7.63 km/s
Sub-Earth Point 5.11°N, 138.63°E
Launch Date Oct 21, 2023
Age 2.4 years
Type internet

Technical Details

Classification Payload
Mass 730.00 kg
Dry Mass 700.00 kg
Total Mass 730.00 kg
Length 0.30 m
Diameter 4.10 m
Span 29.00 m
Shape Box + pan
Manufacturer SPXS
Bus Type Starlink V2M
Phase Status In Orbit
Owner/State SPXS/US

Most Searched